Location: Chillicothe
(39.7950°N, 93.5520°W)
Time: 12:49:31
(UTC-06:00)

Explorer 11/Cluster Stage 4 - Pass Details

Date: 29 October 2019
Orbit: 467 x 1259 km, 28.8° (Epoch: 14 November)

Event Time Altitude Azimuth Distance (km) Brightness Sun altitude
Rises 07:03:33 0° 238° (WSW) 3,306 9.3 -7.5°
Reaches altitude 10° 07:06:52 10° 223° (SW) 2,210 8.6 -6.9°
Maximum altitude 07:10:31 20° 177° (S) 1,497 8.2 -6.2°
Drops below altitude 10° 07:13:41 10° 130° (SE) 1,892 9.7 -5.6°
Sets 07:16:16 0° 112° (ESE) 2,684 11.7 -5.1°
